Flag for Morocco Weather past 2 weeks in Rabat, Morocco

Now
70 °F

Broken clouds.


Feels Like: 70 °F
Forecast: 63 / 71 °F
Wind: 12 mph from West

Location: Rabat-Sale

Current Time: May 28, 2015 at 7:54:52 PM

Latest Report: May 28, 2015 at 7:30 PM


Visibility: 5 mi

Pressure: 29.86 "Hg

Humidity: 73%

Dew point: 61 °F

Location of RabatLocation

Historic Weather in Rabat — Graph

°F

Rabat temperature yesterday

Maximum temperature yesterday: 86 °F (at 12:00 PM)
Minimum temperature yesterday: 55 °F (at 6:30 AM)
Average temperature yesterday: 71 °F

Past Weeks' High & Low Weather Summary

 TemperatureHumidityPressure
High86 °F (May 27, 12:00 PM)100% (May 16, 7:00 AM)30.18 "Hg (May 16, 7:00 AM)
Low50 °F (May 16, 5:30 AM)21% (May 26, 1:00 PM)29.80 "Hg (May 28, 1:30 AM)
Average68 °F70%29.96 "Hg
* Reported May 13 7:00 PM — May 28 7:00 PM, Rabat, Weather by CustomWeather, © 2015

Note: Actual official high and low records may vary slightly from our data, if they occured in-between our weather recording intervals... More about our weather records

Advertising

Rabat weather history for previous 24 hours

 ConditionsComfort  
Time TempWeatherWind HumidityBarometerVisibility
7:00 PM
Thu, May 28
70 °FBroken clouds.12 mph78%29.86 "Hg5 mi
6:30 PM72 °FBroken clouds.9 mph73%29.86 "Hg5 mi
6:00 PM72 °FBroken clouds.13 mph73%29.86 "Hg5 mi
5:30 PM72 °FBroken clouds.10 mph78%29.86 "Hg5 mi
5:00 PM72 °FBroken clouds.14 mph73%29.86 "Hg5 mi
4:30 PM73 °FBroken clouds.14 mph69%29.86 "Hg5 mi
4:00 PM73 °FBroken clouds.14 mph69%29.86 "Hg5 mi
3:30 PM75 °FScattered clouds.15 mph65%29.86 "Hg5 mi
3:00 PM75 °FScattered clouds.13 mph65%29.86 "Hg5 mi
2:30 PM75 °FClear.14 mph65%29.86 "Hg5 mi
2:00 PM75 °FClear.14 mph65%29.89 "Hg5 mi
1:30 PM77 °FClear.13 mph61%29.89 "Hg5 mi
1:00 PM77 °FClear.14 mph57%29.89 "Hg5 mi
12:30 PM77 °FClear.13 mph61%29.89 "Hg5 mi
12:00 PM75 °FClear.13 mph65%29.89 "Hg4 mi
11:30 AM75 °FClear.12 mph65%29.89 "Hg4 mi
11:00 AM73 °FClear.13 mph69%29.89 "Hg4 mi
10:30 AM73 °FClear.13 mph69%29.89 "Hg4 mi
10:00 AM73 °FClear.10 mph69%29.89 "Hg5 mi
9:30 AM73 °FClear.12 mph65%29.89 "Hg5 mi
9:00 AM75 °FClear.8 mph61%29.86 "Hg5 mi
8:30 AM72 °FClear.7 mph69%29.86 "Hg4 mi
8:00 AM72 °FClear.7 mph69%29.86 "Hg4 mi
7:30 AM70 °FScattered clouds.6 mph78%29.86 "Hg4 mi
7:00 AM68 °FScattered clouds.9 mph83%29.86 "Hg4 mi
6:30 AM68 °FBroken clouds.8 mph83%29.83 "Hg4 mi
6:00 AM68 °FPartly cloudy.8 mph83%29.83 "Hg4 mi
5:30 AM79 °FPartly cloudy.6 mph39%29.80 "Hg4 mi
5:00 AM81 °FPartly cloudy.7 mph28%29.80 "Hg4 mi
4:30 AM79 °FPartly cloudy.6 mph32%29.83 "Hg4 mi
4:00 AM81 °FPartly cloudy.5 mph28%29.83 "Hg4 mi
3:30 AM84 °FPartly cloudy.15 mph23%29.83 "Hg4 mi
3:00 AM73 °FThunderstorms. Passing clouds.5 mph57%29.86 "Hg4 mi
2:30 AM77 °FThunderstorms. Passing clouds.8 mph39%29.86 "Hg4 mi
2:00 AM77 °FClear.2 mph36%29.80 "Hg4 mi
1:30 AM77 °FClear.3 mph36%29.80 "Hg4 mi
1:00 AM73 °FClear.5 mph47%29.83 "Hg4 mi
12:30 AM70 °FClear.3 mph53%29.89 "Hg4 mi
12:00 AM72 °FClear.2 mph50%29.89 "Hg4 mi
11:30 PM
Wed, May 27
72 °FClear.2 mph50%29.92 "Hg4 mi
11:00 PM72 °FClear.5 mph53%29.92 "Hg4 mi
10:30 PM73 °FClear.10 mph57%29.92 "Hg4 mi
10:00 PM68 °FClear.5 mph64%29.89 "Hg4 mi
9:30 PM68 °FClear.2 mph69%29.86 "Hg4 mi
9:00 PM70 °FClear.1 mph64%29.86 "Hg4 mi
8:30 PM75 °FClear.3 mph50%29.86 "Hg10 mi
8:00 PM77 °FSunny.3 mph47%29.86 "Hg10 mi
7:30 PM79 °FPassing clouds.7 mph42%29.86 "HgN/A
7:00 PM81 °FSunny.9 mph37%29.86 "Hg10 mi
Weather by CustomWeather, © 2015

See weather overviewHow to use our weather pages